Temperature
15 15 15 15 15 15 15 15 15 15 15 15 15 15 15 15 15 15 15 15 15 15 15 15 15 15 15 15 15 15 15 15 15 15 15 15 15 15 15 15 15 15 15
15 15 15 15 15 15 15 15 15 15 15 15 15 15 15 15 15 15 15 15 15 15 15 15 15 15 15 15 15 15 15 15 15 15 15 15 15 15 15 15 15 15 15
15 15 15 15 15 15 15 15 15 15 15 15 15 15 15 15 15 15 15 15 14 15 15 15 15 15 14 14 15 15 15 14 14 14 14 14 14 14 14 14 14 14 14
15 15 15 15 15 15 15 15 15 14 15 15 15 14 14 15 15 14 14 14 14 14 14 14 14 14 14 14 14 14 14 14 14 14 14 14 14 14 14 14 14 14 14
15 15 15 15 14 14 14 14 14 14 14 14 14 14 14 14 14 14 14 14 14 14 14 14 14 14 14 14 14 14 14 14 14 14 14 14 14 14 14 14 14 14 14
14 14 14 14 14 14 14 14 14 14 14 14 14 14 14 14 14 14 14 14 14 14 14 14 14 14 14 14 14 14 14 14 14 13 13 13 13 13 13 13 13 13 13
14 14 14 14 14 14 14 14 14 14 14 14 14 14 14 14 14 14 14 13 13 13 13 13 13 13 13 14 14 14 14 13 13 13 13 13 13 13 13 13 13 13 13
14 14 14 14 14 14 14 14 14 13 13 14 14 14 14 14 13 13 13 13 13 13 13 13 13 13 13 13 13 13 13 13 13 13 13 13 13 13 13 13 13 13 13
14 14 14 14 14 14 13 13 13 13 13 13 14 14 15 15 14 13 13 13 13 13 13 13 13 13 13 12 12 13 13 13 13 13 13 13 13 13 13 12 12 13 13
14 14 14 14 14 13 13 13 13 13 13 13 13 14 14 14 14 14 13 13 13 13 13 13 13 12 12 12 12 13 13 13 13 13 12 12 12 12 12 12 12 12 12
14 14 14 14 13 13 13 13 13 13 13 13 13 13 13 13 14 14 14 13 13 13 12 12 12 12 12 12 12 12 12 12 12 12 12 12 12 12 12 12 12 12 12
14 14 14 13 13 13 13 13 13 13 13 13 13 13 13 13 13 13 14 13 13 12 12 12 12 12 12 12 12 12 12 12 12 12 12 12 12 12 12 12 12 12 11
14 14 14 13 13 13 13 13 13 13 13 13 13 13 13 13 13 13 13 13 13 12 12 12 12 12 12 12 12 12 12 12 12 12 12 12 12 12 12 12 12 12 11
14 14 14 13 13 13 13 13 13 13 13 13 13 13 13 13 13 13 13 13 13 13 12 12 12 12 11 11 12 12 12 12 12 12 12 12 11 11 11 11 11 11 11
14 14 14 13 13 13 13 13 13 13 13 13 13 12 12 13 13 12 12 12 13 13 13 12 11 11 11 11 11 11 11 11 11 12 12 11 11 11 11 11 11 11 11
14 14 13 13 13 13 13 13 13 13 13 13 13 12 12 12 12 12 12 12 12 13 13 12 11 11 11 11 11 11 11 11 11 11 11 11 11 11 11 11 11 11 11
14 13 13 13 13 13 13 13 13 13 12 13 12 12 12 12 12 12 12 12 12 12 12 12 11 11 11 11 11 11 11 11 11 11 11 11 11 11 11 11 11 11 11
13 13 13 13 13 13 13 13 13 13 12 12 12 12 12 12 12 12 12 12 12 12 12 11 11 11 11 11 11 11 10 10 11 11 11 11 10 11 11 10 10 10 10
13 13 13 13 13 13 13 13 13 12 12 12 12 12 12 12 12 12 12 12 12 12 12 11 11 11 11 10 10 10 10 10 10 10 10 10 10 10 10 10 10 10 10
13 13 13 13 13 13 12 12 12 12 12 12 12 12 12 12 12 12 12 12 12 12 11 11 11 11 10 10 10 10 10 10 10 10 10 10 10 10 10 10 10 10 10
13 13 13 13 13 12 12 12 12 12 12 12 12 12 12 12 12 12 12 11 11 11 11 11 10 10 10 10 10 10 10 9 9 9 10 10 10 10 10 10 10 10 10
13 13 13 13 13 12 13 12 12 12 12 12 12 12 12 12 12 12 11 11 11 11 11 10 10 10 10 10 10 10 9 9 9 9 9 9 9 9 9 9 10 10 10
13 13 12 12 12 12 12 12 12 12 12 12 11 11 11 11 11 11 11 11 11 11 11 10 10 10 10 10 10 9 9 9 9 9 9 9 9 9 9 9 9 9 9
13 12 12 12 12 12 12 12 12 12 11 11 11 11 11 11 11 11 11 11 10 10 10 10 10 9 9 9 9 9 9 9 9 9 9 8 8 8 9 9 9 9 9
12 12 12 12 12 12 12 12 12 11 11 11 11 11 11 11 11 11 11 10 10 10 10 10 10 10 10 10 9 9 9 8 8 8 9 8 8 8 8 8 9 9 9
12 12 12 12 11 11 12 12 12 11 11 11 11 11 11 11 11 11 10 10 10 10 10 9 9 9 9 9 9 9 9 8 8 8 8 8 8 8 8 8 8 8 8
Wind_Speed
3 4 4 4 4 5 5 4 4 6 6 6 6 6 7 7 7 7 8 12 11 10 9 10 10 9 8 8 8 8 8 8 8 8 8 8 8 8 8 7 6 6 7
3 3 4 4 4 4 4 4 5 5 5 6 6 7 7 7 7 7 7 9 11 11 11 10 10 10 9 8 8 8 7 7 7 7 7 7 7 8 8 8 8 8 8
4 4 3 4 4 4 4 4 5 5 5 5 6 6 6 7 7 7 7 6 8 10 11 11 10 10 9 8 8 8 8 7 7 7 7 8 8 8 8 8 8 8 8
4 4 3 3 4 4 4 3 3 4 4 4 4 4 5 5 6 6 6 6 6 7 9 11 10 10 9 8 8 8 8 7 7 7 8 8 8 8 8 8 8 7 7
4 4 3 3 4 3 3 3 3 3 4 4 4 4 4 4 5 5 6 6 6 6 6 8 8 9 9 8 8 7 7 7 7 7 8 8 8 8 8 8 7 7 7
4 4 3 3 3 3 3 3 4 4 4 3 4 4 4 4 4 5 5 5 6 6 6 6 5 7 8 8 8 7 7 7 7 7 7 7 7 7 7 7 7 6 7
3 4 3 3 2 3 3 3 3 4 3 3 2 3 3 4 4 4 4 4 5 5 6 6 5 5 5 6 8 7 6 6 6 6 6 7 6 6 6 6 6 6 6
2 3 3 2 2 2 2 2 3 2 2 1 0 1 2 3 3 3 3 3 3 4 5 6 6 5 5 5 8 8 7 6 6 6 6 6 6 6 6 6 6 6 5
2 2 3 2 2 2 2 2 2 2 1 1 1 1 1 1 1 2 3 3 3 3 3 4 5 5 5 5 6 8 8 7 6 6 5 5 5 5 6 6 6 6 6
2 2 2 2 2 1 2 2 1 1 2 1 1 1 2 1 1 1 1 2 3 3 3 3 3 4 5 5 6 8 7 7 6 5 5 5 5 5 5 5 6 7 7
2 2 2 2 2 2 2 2 1 1 1 1 0 1 0 0 2 2 1 1 0 1 2 2 2 3 3 4 4 6 7 6 5 5 4 4 4 4 4 5 5 5 6
2 2 2 2 2 2 2 2 2 2 1 1 1 1 1 1 1 1 1 2 1 0 1 1 1 2 2 3 4 6 5 5 5 5 5 4 4 4 4 4 4 4 5
2 3 3 3 3 3 3 3 3 3 3 2 2 1 1 1 1 2 2 2 1 1 1 1 1 1 1 1 3 3 4 4 4 4 4 4 4 4 4 4 3 4 5
2 3 3 3 4 4 4 4 3 3 3 3 3 3 2 2 2 2 2 2 2 2 2 1 1 1 0 0 2 0 2 3 3 3 4 4 3 4 4 4 5 5 5
2 3 4 4 4 4 4 4 3 4 4 4 3 3 3 2 2 3 3 3 3 3 2 1 1 1 1 0 1 1 1 3 2 3 3 3 3 3 4 4 4 4 4
3 3 4 4 5 5 4 4 4 4 4 3 3 3 3 3 2 3 3 3 4 4 3 1 1 2 1 2 1 1 1 2 1 1 1 2 1 1 2 2 3 3 2
4 4 4 4 4 4 4 4 4 4 5 4 4 4 4 3 2 2 3 3 3 3 3 2 1 1 2 2 2 2 2 2 1 1 1 1 1 1 1 1 2 2 2
4 4 4 4 4 4 5 5 5 5 5 5 4 4 4 3 3 3 3 3 3 3 3 3 2 2 2 2 2 2 2 2 2 2 2 1 1 1 1 1 1 1 1
4 4 4 5 4 5 5 6 6 6 6 6 5 5 5 4 4 4 4 3 3 3 3 3 3 1 2 2 2 2 3 2 2 3 3 4 3 2 2 3 3 2 2
5 5 5 5 4 4 5 5 5 6 6 6 6 5 5 5 5 4 4 4 4 4 4 4 3 3 2 2 2 2 2 2 2 2 2 3 3 4 4 4 4 4 4
4 4 5 4 4 4 4 4 5 5 6 6 6 6 5 4 3 4 4 4 4 4 4 4 4 3 3 3 3 3 3 2 3 2 2 3 3 4 4 6 6 6 6
5 5 5 5 5 3 2 3 5 5 6 6 6 6 5 5 5 5 5 5 5 5 5 5 4 5 5 4 3 3 3 3 3 2 3 3 3 3 4 4 5 7 8
5 5 5 5 5 4 4 5 5 6 6 6 6 5 4 4 5 5 6 7 7 6 6 6 6 6 5 4 4 5 5 5 4 3 4 4 3 4 4 4 5 7 8
5 5 5 5 5 4 4 5 6 6 6 6 6 5 5 6 5 5 6 6 6 6 6 7 7 6 6 5 5 5 5 5 4 3 3 4 4 4 4 5 6 8 9
5 5 5 5 5 5 5 5 6 5 5 6 6 5 5 5 2 4 6 6 6 5 4 5 5 4 3 4 5 4 4 5 5 4 4 4 4 4 5 5 5 8 9
5 5 4 5 5 4 4 4 6 4 5 5 4 5 4 4 2 4 6 6 7 6 5 5 5 6 7 7 8 8 6 6 5 4 4 4 4 4 4 4 4 5 7
Wind_Direction
78 84 83 79 80 82 86 82 81 82 78 71 69 70 70 69 71 75 73 67 62 64 69 71 70 70 74 77 78 86 86 82 77 72 70 68 68 71 74 72 74 76 72
81 82 81 81 81 81 80 86 89 89 84 80 75 73 73 75 71 73 74 77 71 63 62 66 67 68 71 73 77 83 85 83 78 75 72 69 69 72 71 68 69 70 70
82 88 83 87 89 91 88 84 93 95 94 91 84 75 71 68 68 65 62 65 73 72 63 60 60 62 66 69 73 76 79 76 76 73 73 74 74 73 70 67 69 71 70
80 85 89 94 96 90 90 89 99 102 97 89 83 77 76 74 68 67 65 64 61 62 67 62 53 52 56 62 69 72 76 77 77 75 76 78 77 75 71 68 68 70 71
75 87 89 93 99 98 94 92 93 94 96 89 83 76 73 72 68 68 68 62 60 57 59 72 66 54 50 53 62 70 75 79 80 77 78 77 77 76 72 70 68 67 71
77 88 99 99 99 100 92 91 92 92 93 95 89 80 74 75 69 64 64 65 60 54 49 48 57 67 61 49 49 58 65 76 83 81 80 78 76 75 72 68 65 68 73
87 90 94 101 97 99 98 98 97 101 97 98 105 100 97 82 73 70 62 61 63 53 51 51 46 44 60 65 50 48 53 68 76 78 79 78 78 76 70 65 65 68 75
87 99 106 109 114 110 109 106 112 114 104 86 39 180 150 135 93 77 76 65 58 60 51 48 50 48 43 49 57 50 52 60 70 74 78 78 76 75 73 67 66 60 71
104 109 108 113 120 130 123 134 145 156 147 111 358 321 293 103 107 109 70 70 60 54 54 51 49 45 46 52 52 56 52 54 62 66 73 74 76 79 75 76 66 65 85
136 137 138 138 134 132 138 156 158 169 179 152 102 360 355 8 251 157 149 85 55 54 51 56 52 47 45 56 61 50 52 50 55 60 64 70 75 73 72 73 70 73 87
162 163 170 170 166 167 173 165 161 179 190 191 185 173 83 5 278 269 210 199 138 92 65 53 61 51 49 54 56 54 49 48 49 52 55 58 68 67 71 73 78 79 88
181 187 188 191 198 198 195 191 193 196 211 214 235 232 253 255 255 262 246 217 229 111 101 71 56 60 52 57 57 52 46 45 48 46 43 45 53 63 67 68 77 90 95
190 202 204 209 214 212 206 209 214 214 214 222 237 250 260 267 271 254 249 241 237 230 217 198 145 98 58 56 68 50 56 51 46 44 43 43 43 48 50 43 67 103 108
221 213 214 218 219 223 215 212 231 229 231 224 228 232 237 245 249 250 254 247 240 234 227 214 155 164 135 98 78 30 85 67 45 48 48 46 47 47 48 46 69 89 98
231 223 215 217 217 216 221 218 226 230 236 238 236 234 234 233 238 246 247 255 264 258 255 222 193 169 201 157 107 216 99 78 53 49 46 49 63 61 58 57 72 82 84
227 226 219 214 211 210 212 215 226 235 234 232 237 242 238 236 234 236 242 252 264 277 271 264 222 180 177 203 203 241 104 113 81 52 43 64 74 74 75 66 74 78 83
225 221 218 210 207 206 206 205 219 223 229 229 223 225 228 225 224 227 235 242 247 258 258 262 231 188 198 218 202 232 231 223 195 164 130 89 70 95 122 100 77 75 82
225 218 215 212 213 213 210 209 214 220 225 229 228 227 230 219 224 229 230 233 236 242 243 245 233 217 229 233 226 235 243 240 238 174 177 193 193 173 193 189 166 153 129
225 217 217 217 221 222 220 220 222 224 224 228 232 231 233 228 226 224 227 233 236 233 235 236 239 226 235 232 234 240 244 245 246 209 201 207 210 215 217 216 215 216 210
226 223 220 221 225 226 228 229 232 234 233 231 231 232 236 234 235 234 230 230 229 226 223 231 232 226 229 225 228 242 252 243 257 240 225 223 218 222 226 223 216 216 219
229 225 223 223 225 227 232 239 234 234 236 234 231 231 231 236 264 255 247 238 230 229 226 229 233 232 229 219 233 239 248 258 265 249 261 250 232 234 228 223 218 215 219
225 224 225 223 226 223 211 241 251 234 235 237 237 233 225 218 221 224 231 239 243 236 238 235 238 238 241 235 234 240 246 254 263 242 256 262 243 250 243 232 208 212 219
221 223 225 226 226 216 193 212 238 243 238 241 242 238 231 226 224 232 218 212 222 232 245 250 248 248 249 241 234 237 242 251 264 262 252 261 247 253 248 245 218 215 219
219 220 222 224 227 223 198 213 231 237 239 239 241 244 239 231 220 234 235 229 230 229 233 242 249 257 258 248 239 244 249 253 268 254 241 262 254 257 256 247 224 221 225
219 218 220 224 225 219 199 213 231 233 239 238 237 239 243 241 198 226 235 234 236 238 230 240 267 273 278 253 238 237 234 238 256 248 228 252 261 260 257 248 229 219 229
215 214 218 225 227 230 197 207 237 233 239 242 242 239 229 242 226 216 230 233 238 242 240 233 236 236 235 223 217 229 231 237 252 252 221 236 255 255 258 243 241 232 228
Height
1548 1548 1548 1547 1548 1548 1548 1548 1548 1548 1548 1548 1547 1548 1548 1548 1548 1548 1548 1547 1547 1546 1546 1545 1544 1544 1543 1543 1542 1542 1542 1541 1541 1540 1540 1539 1539 1539 1539 1538 1538 1537 1537
1548 1548 1548 1548 1548 1548 1548 1548 1548 1548 1548 1548 1548 1548 1548 1548 1549 1549 1549 1548 1548 1547 1546 1546 1545 1544 1544 1543 1542 1542 1542 1541 1541 1541 1540 1540 1539 1539 1538 1538 1538 1537 1537
1549 1549 1549 1549 1549 1549 1549 1549 1549 1549 1549 1549 1549 1549 1549 1549 1549 1549 1549 1549 1549 1548 1547 1546 1546 1545 1544 1543 1543 1542 1542 1542 1541 1541 1540 1540 1539 1539 1538 1538 1537 1537 1536
1550 1549 1549 1549 1549 1549 1549 1549 1549 1549 1549 1550 1550 1550 1550 1550 1550 1550 1550 1550 1550 1549 1548 1547 1546 1546 1545 1544 1543 1543 1542 1541 1541 1541 1540 1540 1539 1539 1538 1538 1537 1536 1536
1550 1550 1549 1549 1549 1549 1549 1549 1549 1550 1550 1550 1550 1550 1551 1551 1551 1551 1551 1551 1550 1549 1549 1548 1547 1546 1546 1545 1544 1543 1542 1542 1541 1541 1540 1540 1539 1539 1538 1537 1537 1536 1536
1550 1550 1550 1550 1550 1549 1549 1549 1549 1549 1550 1550 1551 1551 1551 1551 1551 1551 1551 1551 1550 1550 1549 1548 1548 1547 1546 1545 1545 1544 1543 1542 1541 1540 1540 1539 1539 1538 1538 1537 1536 1535 1535
1551 1550 1550 1550 1550 1550 1549 1549 1549 1550 1550 1550 1551 1551 1552 1552 1552 1551 1552 1551 1551 1550 1550 1549 1548 1547 1547 1545 1545 1544 1543 1542 1541 1540 1540 1539 1539 1538 1537 1536 1535 1534 1533
1551 1551 1550 1550 1550 1549 1549 1549 1549 1550 1550 1550 1551 1552 1553 1554 1552 1552 1552 1551 1551 1550 1550 1549 1548 1547 1546 1546 1545 1544 1543 1542 1541 1540 1540 1539 1538 1537 1536 1535 1533 1530 1528
1550 1550 1550 1550 1550 1550 1550 1550 1550 1550 1550 1551 1551 1553 1553 1552 1553 1553 1552 1552 1551 1550 1550 1549 1548 1547 1546 1545 1545 1544 1543 1542 1541 1540 1540 1539 1538 1537 1536 1535 1532 1529 1526
1550 1550 1550 1550 1550 1550 1550 1550 1551 1551 1551 1551 1551 1551 1552 1552 1553 1553 1553 1552 1551 1550 1550 1548 1548 1547 1546 1545 1544 1543 1543 1542 1541 1540 1540 1539 1538 1537 1536 1535 1532 1530 1528
1550 1550 1550 1550 1551 1550 1550 1550 1551 1551 1551 1551 1551 1551 1551 1551 1552 1552 1552 1552 1551 1550 1549 1548 1547 1546 1546 1545 1544 1544 1543 1542 1541 1541 1540 1539 1538 1537 1536 1534 1533 1532 1531
1549 1549 1549 1550 1550 1550 1550 1550 1550 1550 1550 1550 1551 1551 1551 1551 1551 1551 1552 1551 1551 1550 1549 1548 1547 1546 1545 1545 1544 1543 1543 1542 1541 1540 1540 1539 1538 1537 1535 1534 1532 1531 1532
1548 1548 1549 1549 1549 1549 1549 1550 1550 1550 1550 1550 1550 1550 1550 1550 1550 1551 1551 1550 1550 1550 1548 1548 1547 1546 1545 1544 1543 1543 1542 1542 1541 1540 1539 1538 1537 1536 1534 1532 1528 1528 1531
1547 1547 1547 1548 1548 1548 1548 1548 1549 1549 1549 1549 1549 1549 1549 1549 1549 1549 1550 1550 1549 1549 1548 1548 1546 1545 1544 1543 1543 1542 1541 1541 1540 1539 1538 1538 1537 1536 1534 1531 1528 1529 1531
1545 1545 1545 1546 1546 1546 1547 1547 1547 1548 1548 1548 1548 1548 1547 1547 1547 1547 1548 1548 1549 1548 1548 1547 1546 1544 1543 1543 1542 1541 1541 1539 1539 1538 1538 1537 1536 1535 1534 1532 1531 1531 1532
1543 1543 1544 1544 1544 1544 1545 1545 1545 1545 1546 1546 1545 1546 1546 1546 1545 1545 1546 1546 1546 1547 1546 1545 1544 1543 1542 1542 1541 1540 1539 1538 1538 1537 1536 1536 1535 1534 1533 1533 1532 1532 1532
1541 1541 1541 1541 1542 1542 1543 1543 1543 1543 1544 1544 1544 1544 1543 1543 1543 1543 1543 1544 1544 1544 1544 1543 1543 1542 1541 1540 1539 1539 1538 1537 1536 1536 1535 1534 1533 1532 1532 1532 1531 1531 1531
1538 1539 1539 1539 1540 1540 1540 1541 1541 1541 1541 1542 1542 1542 1542 1541 1541 1541 1541 1542 1542 1542 1542 1541 1541 1540 1539 1539 1538 1537 1536 1536 1535 1534 1533 1532 1532 1531 1530 1530 1530 1529 1529
1536 1536 1536 1537 1537 1538 1538 1538 1538 1538 1539 1539 1539 1540 1540 1540 1539 1539 1539 1539 1539 1539 1539 1539 1538 1538 1537 1537 1536 1535 1534 1533 1533 1532 1531 1531 1530 1529 1529 1528 1528 1528 1527
1533 1534 1534 1534 1534 1535 1535 1535 1536 1536 1536 1537 1537 1537 1537 1537 1537 1537 1537 1537 1537 1537 1536 1536 1536 1536 1535 1534 1534 1533 1532 1531 1531 1530 1529 1528 1528 1527 1527 1526 1526 1525 1525
1530 1531 1531 1531 1532 1532 1532 1532 1532 1533 1533 1534 1534 1534 1534 1534 1534 1534 1534 1534 1534 1534 1534 1534 1534 1533 1533 1532 1532 1531 1530 1529 1529 1528 1527 1526 1526 1525 1524 1524 1523 1523 1523
1527 1528 1528 1528 1528 1529 1529 1529 1529 1530 1530 1531 1531 1531 1531 1531 1531 1531 1531 1531 1531 1531 1531 1531 1531 1531 1530 1530 1529 1528 1528 1527 1527 1526 1525 1524 1523 1523 1522 1521 1521 1520 1520
1524 1524 1525 1525 1525 1525 1526 1526 1526 1527 1527 1528 1528 1528 1528 1528 1528 1528 1527 1527 1528 1528 1528 1528 1528 1528 1528 1527 1526 1526 1525 1525 1524 1523 1522 1521 1521 1520 1519 1519 1518 1517 1517
1520 1521 1521 1521 1521 1522 1522 1523 1523 1523 1524 1524 1524 1524 1524 1525 1524 1524 1524 1524 1524 1524 1525 1525 1524 1524 1524 1524 1523 1523 1522 1522 1521 1520 1519 1519 1518 1517 1516 1515 1515 1514 1513
1517 1517 1517 1518 1518 1518 1519 1519 1520 1520 1520 1520 1520 1520 1520 1521 1520 1520 1521 1521 1521 1521 1521 1520 1520 1520 1519 1519 1519 1519 1519 1519 1518 1517 1516 1516 1515 1514 1513 1512 1511 1510 1510
1513 1513 1514 1514 1514 1514 1515 1515 1516 1516 1516 1516 1516 1516 1516 1516 1516 1516 1517 1517 1517 1517 1517 1516 1516 1516 1516 1516 1515 1516 1515 1515 1514 1514 1513 1512 1512 1511 1510 1508 1507 1506 1505